This is the latest recevied weather packets stored in our database for station/object 9W2KHE-10. If no packets are shown the sender has not sent any weather packets the latest 10 day(s).
| Time | Temp. | Humidity | Pressure | Rain* | Wind** | Luminosity | Snow |
|---|---|---|---|---|---|---|---|
| 1777640694 | 29.44° C | 62% | 1011.4 hPa | - | - | - | - |
| 1777639793 | 30° C | 62% | 1011.1 hPa | - | - | - | - |
| 1777638893 | 30° C | 61% | 1010.9 hPa | - | - | - | - |
| 1777637993 | 30° C | 61% | 1010.9 hPa | - | - | - | - |
| 1777637093 | 30° C | 60% | 1010.6 hPa | - | - | - | - |
| 1777636193 | 30° C | 60% | 1010.5 hPa | - | - | - | - |
| 1777635293 | 30.56° C | 58% | 1010.1 hPa | - | - | - | - |
| 1777634392 | 32.78° C | 52% | 1010.1 hPa | - | - | - | - |
| 1777609287 | 33.89° C | 54% | 1012 hPa | - | - | - | - |
| 1777586416 | 32.22° C | 53% | 1010.7 hPa | - | - | - | - |
| 1777573880 | 32.78° C | 53% | 1011.5 hPa | - | - | - | - |
| 1777565178 | 33.33° C | 52% | 1012.5 hPa | - | - | - | - |
| 1777538205 | 34.44° C | 53% | 1008.3 hPa | - | - | - | - |
| 1777537305 | 33.89° C | 53% | 1008.6 hPa | - | - | - | - |
| 1777536405 | 33.89° C | 55% | 1008.8 hPa | - | - | - | - |
| 1777535505 | 33.33° C | 56% | 1008.8 hPa | - | - | - | - |
| 1777534604 | 33.33° C | 56% | 1008.9 hPa | - | - | - | - |
| 1777533704 | 33.33° C | 57% | 1009 hPa | - | - | - | - |
| 1777532804 | 33.33° C | 57% | 1009.5 hPa | - | - | - | - |
| 1777531904 | 32.78° C | 58% | 1009.7 hPa | - | - | - | - |
| 1777531004 | 32.22° C | 59% | 1009.8 hPa | - | - | - | - |
| 1777530104 | 32.22° C | 61% | 1010.1 hPa | - | - | - | - |
| 1777529204 | 32.22° C | 61% | 1010.3 hPa | - | - | - | - |
| 1777528304 | 32.22° C | 61% | 1010.4 hPa | - | - | - | - |
| 1777527404 | 31.67° C | 61% | 1010.6 hPa | - | - | - | - |
* Rain since midnight (hover to see other rain measurements)
** Current wind speed in m/s (hover to see current wind gust speed)